OpenBCM V1.13 (Linux)

Packet Radio Mailbox

DB0FHN

[JN59NK Nuernberg]

 Login: GUEST





  
CX2SA  > KEPS     17.08.04 07:31l 277 Lines 7262 Bytes #999 (0) @ AMSAT
BID : ORB04229.D
Read: GUEST
Subj: Orbital Elements  04229.MICROS
Path: DB0FHN<DB0MRW<OK0PKL<OK0PPL<DB0RES<ON0AR<IW2ESA<IK1ZNW<I0TVL<CX2SA
Sent: 040817/0518Z @:CX2SA.LAV.URY.SA #:1397 [Minas] FBB7.00e $:ORB04229.D
From: CX2SA@CX2SA.LAV.URY.SA
To  : KEPS@AMSAT


HR AMSAT ORBITAL ELEMENTS FOR THE MICROSATS
FROM WA5QGD FORT WORTH,TX August 16, 2004
SEND SUBSCRIBE/UNSUBSCRIBE TO majordomo@amsat.org ONLY
BID: ORB04229.D
TO ALL RADIO AMATEURS BT

Satellite: UO-14
Catalog number: 20437
Epoch time:      04228.64982697
Element set:     568
Inclination:       98.2084 deg
RA of node:       249.2841 deg
Eccentricity:    0.0011355
Arg of perigee:    28.3943 deg
Mean anomaly:     331.7850 deg
Mean motion:   14.31365856 rev/day
Decay rate:       -2.7e-07 rev/day^2
Epoch rev:           76032
Checksum:              320

Satellite: AO-16
Catalog number: 20439
Epoch time:      04228.71008008
Element set:     255
Inclination:       98.2436 deg
RA of node:       263.8413 deg
Eccentricity:    0.0011890
Arg of perigee:    34.7001 deg
Mean anomaly:     325.4957 deg
Mean motion:   14.31623261 rev/day
Decay rate:        1.1e-07 rev/day^2
Epoch rev:           76038
Checksum:              271

Satellite: WO-18
Catalog number: 20441
Epoch time:      04229.35968366
Element set:     441
Inclination:       98.2573 deg
RA of node:       268.4594 deg
Eccentricity:    0.0012606
Arg of perigee:    33.0368 deg
Mean anomaly:     327.1600 deg
Mean motion:   14.31699321 rev/day
Decay rate:        1.3e-07 rev/day^2
Epoch rev:           76053
Checksum:              296

Satellite: LO-19
Catalog number: 20442
Epoch time:      04228.71547132
Element set:    0219
Inclination:      098.2712 deg
RA of node:       271.8627 deg
Eccentricity:    0.0012758
Arg of perigee:   034.1140 deg
Mean anomaly:     326.0861 deg
Mean motion:   14.31869904 rev/day
Decay rate:        2.7e-07 rev/day^2
Epoch rev:           76050
Checksum:              287

Satellite: UO-22
Catalog number: 21575
Epoch time:      04229.18725498
Element set:     179
Inclination:       98.1965 deg
RA of node:       200.8061 deg
Eccentricity:    0.0006381
Arg of perigee:   291.7837 deg
Mean anomaly:      68.2679 deg
Mean motion:   14.39405823 rev/day
Decay rate:        2.6e-07 rev/day^2
Epoch rev:           68662
Checksum:              336

Satellite: KO-23
Catalog number: 22077
Epoch time:      04228.92474072
Element set:    0307
Inclination:      066.0817 deg
RA of node:       065.7440 deg
Eccentricity:    0.0007197
Arg of perigee:   327.7037 deg
Mean anomaly:     032.3540 deg
Mean motion:   12.86424819 rev/day
Decay rate:       -3.7e-07 rev/day^2
Epoch rev:           56432
Checksum:              295

Satellite: AO-27
Catalog number: 22825
Epoch time:      04229.35480500
Element set:     918
Inclination:       98.2424 deg
RA of node:       235.1931 deg
Eccentricity:    0.0009596
Arg of perigee:    87.0193 deg
Mean anomaly:     273.2103 deg
Mean motion:   14.29079380 rev/day
Decay rate:       -6.3e-07 rev/day^2
Epoch rev:           56768
Checksum:              312

Satellite: IO-26
Catalog number: 22826
Epoch time:      04228.94724223
Element set:    0607
Inclination:      098.2395 deg
RA of node:       236.0838 deg
Eccentricity:    0.0010054
Arg of perigee:   085.6507 deg
Mean anomaly:     274.5828 deg
Mean motion:   14.29316163 rev/day
Decay rate:        4.5e-07 rev/day^2
Epoch rev:           56768
Checksum:              321

Satellite: KO-25
Catalog number: 22828
Epoch time:      04229.08201189
Element set:     853
Inclination:       98.2355 deg
RA of node:       236.4532 deg
Eccentricity:    0.0010913
Arg of perigee:    65.7050 deg
Mean anomaly:     294.5284 deg
Mean motion:   14.29637014 rev/day
Decay rate:        6.4e-07 rev/day^2
Epoch rev:           53592
Checksum:              301

Satellite: TO-31
Catalog number: 25396
Epoch time:      04228.96554808
Element set:    0112
Inclination:      098.5711 deg
RA of node:       298.7475 deg
Eccentricity:    0.0002586
Arg of perigee:   014.0603 deg
Mean anomaly:     346.0647 deg
Mean motion:   14.23629805 rev/day
Decay rate:       -4.3e-07 rev/day^2
Epoch rev:           31698
Checksum:              318

Satellite: GO-32
Catalog number: 25397
Epoch time:      04229.34589326
Element set:     538
Inclination:       98.5633 deg
RA of node:       297.1912 deg
Eccentricity:    0.0001591
Arg of perigee:    45.8937 deg
Mean anomaly:     314.2368 deg
Mean motion:   14.23048201 rev/day
Decay rate:       -7.2e-07 rev/day^2
Epoch rev:           31697
Checksum:              320

Satellite: UO-36
Catalog number: 25693
Epoch time:      04229.81365457
Element set:     359
Inclination:       64.5587 deg
RA of node:       138.3772 deg
Eccentricity:    0.0048055
Arg of perigee:   251.1137 deg
Mean anomaly:     108.4754 deg
Mean motion:   14.78370056 rev/day
Decay rate:       -3.9e-07 rev/day^2
Epoch rev:           28682
Checksum:              335

Satellite: SO-41
Catalog number: 26545
Epoch time:      04229.36111847
Element set:     852
Inclination:       64.5581 deg
RA of node:       156.2692 deg
Eccentricity:    0.0014761
Arg of perigee:     5.4510 deg
Mean anomaly:     354.6768 deg
Mean motion:   14.79829385 rev/day
Decay rate:       3.07e-06 rev/day^2
Epoch rev:           20981
Checksum:              319

Satellite: MO-46
Catalog number: 26548
Epoch time:      04228.75754676
Element set:     951
Inclination:       64.5570 deg
RA of node:       144.5488 deg
Eccentricity:    0.0015232
Arg of perigee:   341.6094 deg
Mean anomaly:      18.4476 deg
Mean motion:   14.82370668 rev/day
Decay rate:       4.06e-06 rev/day^2
Epoch rev:           21000
Checksum:              312

Satellite: SO-42
Catalog number: 26549
Epoch time:      04229.32427592
Element set:     942
Inclination:       64.5521 deg
RA of node:       163.3571 deg
Eccentricity:    0.0014990
Arg of perigee:    26.2297 deg
Mean anomaly:     333.9562 deg
Mean motion:   14.78722991 rev/day
Decay rate:       2.66e-06 rev/day^2
Epoch rev:           20967
Checksum:              327

Satellite: NO-44
Catalog number: 26931
Epoch time:      04229.09848288
Element set:     833
Inclination:       67.0556 deg
RA of node:       293.5178 deg
Eccentricity:    0.0006404
Arg of perigee:   273.2039 deg
Mean anomaly:      86.8334 deg
Mean motion:   14.29315659 rev/day
Decay rate:       1.23e-06 rev/day^2
Epoch rev:           15016
Checksum:              317

Satellite: AO-49
Catalog number: 27605
Epoch time:      04229.49324265
Element set:     512
Inclination:       64.5604 deg
RA of node:       341.6367 deg
Eccentricity:    0.0080724
Arg of perigee:   299.7156 deg
Mean anomaly:      59.5908 deg
Mean motion:   14.71910790 rev/day
Decay rate:       1.19e-06 rev/day^2
Epoch rev:            8900
Checksum:              321

Satellite: SO-50
Catalog number: 27607
Epoch time:      04228.82200741
Element set:     493
Inclination:       64.5604 deg
RA of node:       347.5972 deg
Eccentricity:    0.0081881
Arg of perigee:   298.9266 deg
Mean anomaly:      60.3646 deg
Mean motion:   14.70694324 rev/day
Decay rate:       1.75e-06 rev/day^2
Epoch rev:            8882
Checksum:              327

Satellite: AO-51
Catalog number: 28375
Epoch time:      04229.66569327
Element set:      43
Inclination:       98.2563 deg
RA of node:       297.5962 deg
Eccentricity:    0.0085274
Arg of perigee:    70.5449 deg
Mean anomaly:     290.4952 deg
Mean motion:   14.40381995 rev/day
Decay rate:        5.2e-07 rev/day^2
Epoch rev:             677
Checksum:              340



Read previous mail | Read next mail


 12.06.2026 12:58:19lGo back Go up